AAL9020 KPDX-KLAX

Flight info

Callsign AAL9020
Flight time N/A
Altitude 35000
Route HRMNS6 HYJOE JAGWA BURGL IRNMN2
Aircraft A320/M-SDE3FGHIRWY/LB1

Departure

Time 2026-05-05 01:41
Airport Portland International Airport (KPDX)

Arrival

Time N/A
Airport Los Angeles International Airport (KLAX)
Time Latitude Longitude Altitude Speed Heading
2026-05-05 01:21 45.59107 -122.59627 29 ft 0 kts
2026-05-05 01:29 45.59103 -122.59628 30 ft 3 kts
2026-05-05 01:30 45.59076 -122.59634 29 ft 4 kts 14°
2026-05-05 01:30 45.59050 -122.59641 29 ft 4 kts
2026-05-05 01:30 45.59026 -122.59635 29 ft 4 kts 314°
2026-05-05 01:30 45.59021 -122.59627 29 ft 0 kts 299°
2026-05-05 01:33 45.59022 -122.59628 29 ft 2 kts 299°
2026-05-05 01:33 45.59045 -122.59688 29 ft 8 kts 299°
2026-05-05 01:34 45.59070 -122.59752 29 ft 7 kts 299°
2026-05-05 01:34 45.59090 -122.59806 29 ft 5 kts 299°
2026-05-05 01:34 45.59104 -122.59839 29 ft 3 kts 303°
2026-05-05 01:34 45.59114 -122.59854 29 ft 2 kts 314°
2026-05-05 01:35 45.59136 -122.59896 29 ft 7 kts 295°
2026-05-05 01:35 45.59140 -122.59987 28 ft 9 kts 270°
2026-05-05 01:35 45.59141 -122.60074 28 ft 8 kts 270°
2026-05-05 01:35 45.59136 -122.60142 28 ft 3 kts 223°
2026-05-05 01:36 45.59083 -122.60124 28 ft 16 kts 180°
2026-05-05 01:36 45.58983 -122.60193 28 ft 14 kts 208°
2026-05-05 01:36 45.58896 -122.60222 28 ft 13 kts 151°
2026-05-05 01:36 45.58847 -122.60109 29 ft 14 kts 118°
2026-05-05 01:37 45.58801 -122.59990 29 ft 14 kts 118°
2026-05-05 01:37 45.58755 -122.59870 29 ft 14 kts 118°
2026-05-05 01:37 45.58696 -122.59718 29 ft 20 kts 119°
2026-05-05 01:37 45.58629 -122.59547 29 ft 20 kts 119°
2026-05-05 01:38 45.58560 -122.59371 28 ft 21 kts 119°
2026-05-05 01:38 45.58492 -122.59195 28 ft 20 kts 119°
2026-05-05 01:38 45.58423 -122.59020 28 ft 20 kts 119°
2026-05-05 01:38 45.58353 -122.58841 29 ft 21 kts 119°
2026-05-05 01:39 45.58278 -122.58649 29 ft 23 kts 119°
2026-05-05 01:39 45.58219 -122.58498 29 ft 15 kts 119°
2026-05-05 01:39 45.58180 -122.58395 28 ft 5 kts 119°
2026-05-05 01:39 45.58160 -122.58359 28 ft 4 kts 143°
2026-05-05 01:40 45.58135 -122.58352 28 ft 5 kts 181°
2026-05-05 01:40 45.58085 -122.58386 28 ft 9 kts 210°
2026-05-05 01:40 45.58080 -122.58463 29 ft 10 kts 301°
2026-05-05 01:40 45.58197 -122.58761 30 ft 70 kts 298°
2026-05-05 01:41 45.58541 -122.59644 31 ft 132 kts 299°
2026-05-05 01:41 45.59104 -122.60992 75 ft 176 kts 305°
2026-05-05 01:41 45.59782 -122.62384 842 ft 168 kts 303°
2026-05-05 01:41 45.60435 -122.63774 1576 ft 171 kts 300°
2026-05-05 01:42 45.61074 -122.65337 1964 ft 193 kts 298°
2026-05-05 01:42 45.61778 -122.67099 2295 ft 216 kts 299°
2026-05-05 01:42 45.62563 -122.69083 2677 ft 241 kts 298°
2026-05-05 01:42 45.63422 -122.71261 3307 ft 256 kts 299°
2026-05-05 01:43 45.64295 -122.73463 4219 ft 259 kts 300°
2026-05-05 01:43 45.65195 -122.75723 5170 ft 262 kts 301°
2026-05-05 01:43 45.66106 -122.78001 6116 ft 264 kts 300°
2026-05-05 01:43 45.66764 -122.80480 7007 ft 270 kts 285°
2026-05-05 01:44 45.66894 -122.83193 7799 ft 280 kts 267°
2026-05-05 01:44 45.66452 -122.85953 8608 ft 289 kts 255°
2026-05-05 01:44 45.65801 -122.88696 9430 ft 295 kts 246°
2026-05-05 01:44 45.64532 -122.91021 10166 ft 303 kts 217°
2026-05-05 01:45 45.62623 -122.92281 10643 ft 318 kts 189°
2026-05-05 01:45 45.60346 -122.92152 10873 ft 340 kts 167°
2026-05-05 01:45 45.57978 -122.91293 11094 ft 362 kts 162°
2026-05-05 01:45 45.55541 -122.90210 11643 ft 370 kts 160°
2026-05-05 01:46 45.53197 -122.88645 12306 ft 374 kts 146°
2026-05-05 01:46 45.51019 -122.86581 13008 ft 378 kts 145°
2026-05-05 01:46 45.48771 -122.84554 13690 ft 383 kts 147°
2026-05-05 01:46 45.46467 -122.82571 14306 ft 388 kts 147°
2026-05-05 01:47 45.44133 -122.80610 14931 ft 392 kts 148°
2026-05-05 01:47 45.41768 -122.78637 15540 ft 396 kts 148°
2026-05-05 01:47 45.39381 -122.76642 16150 ft 400 kts 147°
2026-05-05 01:47 45.36999 -122.74632 16741 ft 404 kts 147°
2026-05-05 01:48 45.34582 -122.72575 17346 ft 408 kts 147°
2026-05-05 01:48 45.32135 -122.70483 17947 ft 412 kts 147°
2026-05-05 01:48 45.29663 -122.68371 18502 ft 416 kts 147°
2026-05-05 01:48 45.27173 -122.66248 19039 ft 419 kts 147°
2026-05-05 01:49 45.24656 -122.64111 19582 ft 422 kts 147°
2026-05-05 01:49 45.22123 -122.61967 20108 ft 425 kts 147°
2026-05-05 01:49 45.19570 -122.59805 20635 ft 428 kts 147°
2026-05-05 01:49 45.17000 -122.57630 21144 ft 431 kts 147°
2026-05-05 01:50 45.14411 -122.55440 21642 ft 434 kts 147°
2026-05-05 01:50 45.11838 -122.53263 22121 ft 437 kts 147°